Zurück zum Katalog

M-4S R/B

AktivLEO
NORAD 5126·ROCKET BODY·🇯🇵 Japan

Gestartet Feb 16, 1971 von Uchinoura Space Center

Loading…

Nächste Überflüge (nächste 24 Stunden)

TLE

AktuellSource: Space-Track

Epoche: Sep 14, 2026, 15:19 UTC

1 05126U 71011B   26257.63878795  .00000085  00000-0  16160-4 0  9990
2 05126  29.6825  56.6253 0012114  85.4342 274.7618 13.76312182796056

Verfolge M-4S R/B in Echtzeit mit AllMySat

Download on the App Store